Skip Page Navigation
NASA JPL Caltech
NASA Logo - Jet Propulsion Laboratory + View the NASA Portal
+ Center for Near-Earth Object Studies
JPL Home Earth Solar System Stars & Galaxies Technology
JPL Solar System Dynamics
BODIES ORBITS EPHEMERIDES TOOLS PHYSICAL DATA DISCOVERY FAQ SITE MAP
JPL Small-Body Database Browser
Search: [ help ]  
52467 (1995 OS10)
Classification: Outer Main-belt Asteroid          SPK-ID: 2052467
Ephemeris | Orbit Diagram | Orbital Elements | Mission Design | Physical Parameters | Discovery Circumstances | Close-Approach Data ]

[ show orbit diagram ]
Orbital Elements at Epoch 2459200.5 (2020-Dec-17.0) TDB
Reference: JPL 31 (heliocentric ecliptic J2000)
 Element Value Uncertainty (1-sigma)   Units 
e .1679611901805869 4.5099e-08  
a 3.219573709009349 2.0826e-08 au
q 2.678810276970012 1.4334e-07 au
i 12.06025214211887 5.3695e-06 deg
node 328.7118634829019 1.9832e-05 deg
peri 50.87749425107972 2.4553e-05 deg
M 97.42090146392681 1.5206e-05 deg
tp 2458629.487482928935
(2019-May-25.98748293)
8.7115e-05 TDB
period 2110.065735962217
5.78
2.0473e-05
5.605e-08
d
yr
n .1706107984526062 1.6554e-09 deg/d
Q 3.760337141048686 2.4324e-08 au
  Orbit Determination Parameters
   # obs. used (total)      1108  
   data-arc span      9373 days (25.66 yr)  
   first obs. used      1995-07-22  
   last obs. used      2021-03-20  
   planetary ephem.      DE441  
   SB-pert. ephem.      SB441-N16  
   condition code      0  
   norm. resid. RMS      .51454  
   source      ORB  
   producer      Otto Matic  
   solution date      2021-May-04 06:18:33  

Additional Information
 Earth MOID = 1.69753 au 
 Jupiter MOID = 1.82872 au 
 T_jup = 3.133 
[ show covariance matrix ]

Ephemeris | Orbit Diagram | Orbital Elements | Mission Design | Physical Parameters | Discovery Circumstances | Close-Approach Data ]

Physical Parameter Table
Parameter Symbol Value Units Sigma Reference Notes
absolute magnitude H 14.22   n/a MPCxxxxx  
diameter diameter 8.319 km 0.350 urn:nasa:pds:neowise_diameters_albedos::2.0[mainbelt] (http://adsabs.harvard.edu/abs/2011ApJ...741...68M)  
geometric albedo albedo 0.070   0.016 urn:nasa:pds:neowise_diameters_albedos::2.0[mainbelt] (http://adsabs.harvard.edu/abs/2011ApJ...741...68M)  

52467 (1995 OS10)          Discovered 1995-Jul-22 by Spacewatch at Kitt Peak
Reference: 20030216/Numbers.arcLast Updated: 2004-04-19

[ show close-approach data ]
Alternate Designations
 1995 OS10 = 1998 EX17 = 2001 OW65 
Ephemeris | Orbit Diagram | Orbital Elements | Mission Design | Physical Parameters | Discovery Circumstances | Close-Approach Data ]
ABOUT SSD CREDITS/AWARDS PRIVACY/COPYRIGHT GLOSSARY LINKS
FirstGov 2021-Jun-20 02:13 UT
(server date/time)  
NASA Home Page
Site Manager:   Ryan S. Park
Webmaster  Alan B. Chamberlin